Weather History for North Adams, MA

Change the Weather History Date:

Friday, November 18, 2011

  Actual Average Record
Temperature  
Mean Temperature 32 °F -  
Max Temperature 39 °F 44 °F 61 °F (2013)
Min Temperature 24 °F 28 °F 14 °F (1997)
Degree Days  
Heating Degree Days 34    
Moisture  
Dew Point 22 °F    
Average Humidity 65    
Maximum Humidity 88    
Minimum Humidity 46    
Precipitation  
Precipitation 0.00 in - - ()
Sea Level Pressure  
Sea Level Pressure 30.20 in    
Wind  
Wind Speed 11 mph (West)    
Max Wind Speed 17 mph    
Max Gust Speed 25 mph    
Visibility 9 miles    
Events Snow    
Averages and records for this station are not official NWS values.
T = Trace of Precipitation, MM = Missing Value Source: NWS Daily Summary

Daily Weather History Graph

Daily Weather History Graph

Search for Another Location

Airport:

Trip Planner

Search our weather history database for the weather conditions in past years. The results will help you decide how hot, cold, wet, or windy it might be!

Date:

Astronomy

Nov. 18, 2011 Rise Set
Actual Time 6:47 AM EST 4:27 PM EST
Civil Twilight 6:17 AM EST 4:58 PM EST
Nautical Twilight 5:42 AM EST 5:32 PM EST
Astronomical Twilight 5:09 AM EST 6:05 PM EST
Moon 11:57 PM EST (11/18) 12:21 PM EST (11/18)
Length of Visible Light 10h 41m
Length of Day
9h 39m
Waning Gibbous, 49% of the Moon is Illuminated
Nov 18
Waning Gibbous
Nov 25
New
Dec 2
First Quarter
Dec 10
Full
Dec 17
Last Quarter

Hourly Weather History & Observations

Time (EST) Temp. Windchill Dew Point Humidity Pressure Visibility Wind Dir Wind Speed Gust Speed Precip Events Conditions
12:42 AM 33.8 °F 23.9 °F 21.2 °F 60% 29.95 in 10.0 mi WSW 15.0 mph 21.9 mph 0.00 in   Overcast
1:24 AM 33.8 °F 25.8 °F 21.2 °F 60% 29.97 in 10.0 mi West 10.4 mph - N/A   Overcast
1:38 AM 33.8 °F 25.3 °F 21.2 °F 60% 29.97 in 7.0 mi West 11.5 mph 20.7 mph 0.00 in Snow Light Snow
1:52 AM 34.0 °F 26.6 °F 21.9 °F 61% 30.00 in 9.0 mi West 9.2 mph 17.3 mph 0.00 in   Overcast
2:31 AM 33.8 °F 23.9 °F 21.2 °F 60% 30.00 in 10.0 mi West 15.0 mph 24.2 mph N/A   Overcast
2:49 AM 33.8 °F 23.5 °F 21.2 °F 60% 30.01 in 10.0 mi West 16.1 mph 21.9 mph N/A   Overcast
2:52 AM 34.0 °F 24.2 °F 21.9 °F 61% 30.03 in 8.0 mi West 15.0 mph 21.9 mph 0.00 in Snow Light Snow
3:07 AM 32.0 °F 20.8 °F 24.8 °F 75% 30.03 in 1.8 mi West 17.3 mph 25.3 mph 0.00 in Snow Light Snow
3:23 AM 33.8 °F 23.9 °F 24.8 °F 70% 30.03 in 3.0 mi West 15.0 mph 23.0 mph 0.00 in Snow Light Snow
3:35 AM 32.0 °F 23.0 °F 24.8 °F 75% 30.04 in 2.0 mi West 11.5 mph - 0.00 in Snow Light Snow
3:46 AM 33.8 °F 24.3 °F 24.8 °F 70% 30.04 in 4.0 mi West 13.8 mph 21.9 mph 0.00 in Snow Light Snow
4:18 AM 33.8 °F 23.9 °F 23.0 °F 65% 30.06 in 10.0 mi West 15.0 mph 25.3 mph 0.00 in   Overcast
5:52 AM 33.1 °F 23.9 °F 21.9 °F 64% 30.14 in 10.0 mi West 12.7 mph 20.7 mph N/A   Overcast
6:22 AM 32.0 °F 23.6 °F 21.2 °F 64% 30.14 in 10.0 mi West 10.4 mph 19.6 mph N/A   Scattered Clouds
7:09 AM 32.0 °F 24.8 °F 21.2 °F 64% 30.16 in 10.0 mi West 8.1 mph - N/A   Partly Cloudy
7:31 AM 32.0 °F 22.1 °F 21.2 °F 64% 30.19 in 10.0 mi West 13.8 mph 18.4 mph N/A   Mostly Cloudy
7:52 AM 32.0 °F 23.0 °F 23.0 °F 69% 30.22 in 10.0 mi West 11.5 mph 18.4 mph N/A   Overcast
8:52 AM 33.1 °F 23.0 °F 23.0 °F 66% 30.26 in 10.0 mi West 15.0 mph 20.7 mph N/A   Overcast
9:26 AM 33.8 °F 23.5 °F 21.2 °F 60% 30.25 in 10.0 mi West 16.1 mph 23.0 mph N/A   Overcast
9:35 AM 33.8 °F 24.3 °F 21.2 °F 60% 30.25 in 10.0 mi West 13.8 mph 21.9 mph N/A   Overcast
9:42 AM 33.8 °F 27.0 °F 21.2 °F 60% 30.25 in 10.0 mi West 8.1 mph 20.7 mph N/A   Overcast
9:52 AM 34.0 °F 28.0 °F 21.9 °F 61% 30.28 in 10.0 mi West 6.9 mph 17.3 mph N/A   Overcast
11:32 AM 35.6 °F 28.6 °F 23.0 °F 60% 30.28 in 10.0 mi West 9.2 mph - N/A   Overcast
11:52 AM 37.0 °F 31.6 °F 21.9 °F 54% 30.30 in 10.0 mi Variable 6.9 mph - N/A   Overcast
12:52 PM 37.9 °F 30.9 °F 19.9 °F 48% 30.30 in 10.0 mi West 10.4 mph 19.6 mph N/A   Overcast
1:52 PM 37.0 °F 30.4 °F 21.9 °F 54% 30.31 in 10.0 mi WNW 9.2 mph - N/A   Scattered Clouds
2:52 PM 39.0 °F 33.4 °F 19.9 °F 46% 30.32 in 10.0 mi West 8.1 mph 19.6 mph N/A   Mostly Cloudy
3:52 PM 37.0 °F 34.5 °F 19.9 °F 50% 30.32 in 10.0 mi WNW 3.5 mph - N/A   Clear
4:52 PM 32.0 °F - 21.9 °F 66% 30.35 in 10.0 mi Calm Calm - N/A   Clear
5:52 PM 28.9 °F - 23.0 °F 78% 30.36 in 10.0 mi Calm Calm - N/A   Clear
6:52 PM 27.0 °F - 21.0 °F 78% 30.37 in 10.0 mi Calm Calm - N/A   Clear
7:52 PM 25.0 °F - 21.0 °F 85% 30.38 in 10.0 mi Calm Calm - N/A   Clear
8:52 PM 27.0 °F - 21.0 °F 78% 30.38 in 10.0 mi Calm Calm - N/A   Clear
9:52 PM 26.1 °F - 21.0 °F 81% 30.38 in 10.0 mi Calm Calm - N/A   Clear
10:52 PM 24.1 °F - 21.0 °F 88% 30.38 in 10.0 mi Calm Calm - N/A   Clear
11:52 PM 27.0 °F - 21.0 °F 78% 30.36 in 10.0 mi Calm Calm - N/A   Clear